STARLINK-37454, 69375

Orbit data source: Space-Track

STARLINK-37454, 69375 is a payload satellite owned by SpaceX/Seattle (US) in LEO that was launched on Thu, 04 Jun 2026 UTC via an FALCON 9 launch vehicle from the Air Force Eastern Test Range (AFETR). Payload-class satellites include a variety of spacecraft equipped with specific instruments for various scientific and technological missions. These include communications satellites like Starlink; space stations such as the ISS; scientific satellites like the Hubble; Earth observation satellites from companies like Planet Labs, Umbra, and HawkEye 360; GPS; miniature CubeSats for education and research; and military/defense satellites.

Not visible in the next 10 days
Identifier
69375, 2026-123Y
Orbit
LEO
Country
Flag of USUS
Related business
Manufacturer
SpaceX/Seattle
Mission
Operational spacecraft
Bus & Motor
STARLINK V2MO, Unknown motor
Mass
575 kg wet, ~530 kg dry
Launch date (UTC)
2026-06-04 (2 months ago)
Launch vehicle
FALCON 9
Launch site
Air Force Eastern Test Range (AFETR)
Object type
Payload
Rocket body
Debris
Shape & HBR
Unknown shape, 17.7 m
Radar Cross Section
Large (>1 m²)

Expand to show TLE details & history
Last TLE update: 15 hours ago

TLE from 15 hours ago
0 STARLINK-37454
1 69375U 26123Y   26202.07281025  .00130285  00000-0  83993-3 0  9995
2 69375  53.1564  72.1524 0000790 123.4772 236.6324 15.75269584  7396
Epoch: 2026-07-21T01:44Z
TLE epoch observation values (Epoch: 2026-07-21T01:44:50.805Z)
Latitude
-0.00002°
Longitude
107.09295°
Altitude
345.073 km
Speed
7.703 km/s
True Right ascension
04h 48m 36s
True Declination
0° 00' 00"
Sunlit
Object was in daylight at epoch
Visualization orbit readout
Latitude
Unknown
Longitude
Unknown
Altitude
Unknown
Speed
Unknown
Apparent Right ascension
Unknown
Apparent Declination
Unknown
Sunlit
N/A
Visualization observer readout
Local Sidereal Time
05:52:57
Azimuth
Unknown
Elevation
Unknown
Doppler factor
Unknown
Orbital elements
Apogee altitude
344.657 km
Perigee altitude
343.595 km
Semi-major axis
6,722.263 km
Eccentricity
0.00008
Inclination
53.1564°
RAAN
72.1524°
Arg. of periapsis
123.4772°
True anomaly
236.62484°
Mean anomaly
236.6324°
Eccentric anomaly
236.62862°
Mean motion
3.93795 °/min
Orbital period
91.42 mins
BSTAR
0.00083993
Loading maneuver chart data...
Computing Atmospheric mass density...
Loading historical data...
Loading historical data...
Loading historical data...
Loading historical data...
Loading historical data...
Loading historical data...
Loading historical data...

Documentation

Showing up to 5 results
|